• In Hungary
  • List of Countries
  • For 7 days
  • Water Temperature
  • Satellite Maps
  • Weather Map
  • News
  • Weather Widgets
  • user-avatar
    Login

    Hourly Weather Pemba

    Today, 17 July, Tuesday

    Time Temperature Precipitation Wind Pressure Humidity
    00:00 +20°C° 0 mm 2 mps 746 mmHg 96%
    01:00 +20°C° 0 mm 2 mps 746 mmHg 97%
    02:00 +19°C° 0 mm 2 mps 746 mmHg 97%
    03:00 +19°C° 0 mm 2 mps 746 mmHg 97%
    04:00 +20°C° 0 mm 3 mps 746 mmHg 95%
    05:00 +20°C° 0 mm 3 mps 746 mmHg 92%
    06:00 +21°C° 0 mm 3 mps 746 mmHg 90%
    07:00 +24°C° 0.4 mm 3 mps 746 mmHg 85%
    08:00 +25°C° 0.4 mm 4 mps 745 mmHg 80%
    09:00 +26°C° 0 mm 4 mps 746 mmHg 76%
    10:00 +27°C° 1.1 mm 4 mps 745 mmHg 73%
    11:00 +28°C° 1.1 mm 4 mps 745 mmHg 71%
    12:00 +28°C° 1.1 mm 4 mps 745 mmHg 68%
    13:00 +28°C° 0.6 mm 4 mps 745 mmHg 69%
    14:00 +28°C° 0.6 mm 4 mps 745 mmHg 70%
    15:00 +28°C° 0.6 mm 4 mps 745 mmHg 71%
    16:00 +27°C° 0.6 mm 3 mps 745 mmHg 75%
    17:00 +26°C° 0.6 mm 3 mps 744 mmHg 80%
    18:00 +25°C° 0.6 mm 3 mps 744 mmHg 84%
    19:00 +24°C° 0.2 mm 3 mps 744 mmHg 87%
    20:00 +22°C° 0.2 mm 3 mps 744 mmHg 90%
    21:00 +21°C° 0.2 mm 2 mps 744 mmHg 93%
    22:00 +20°C° 0.1 mm 3 mps 744 mmHg 94%
    23:00 +20°C° 0.1 mm 3 mps 744 mmHg 95%

    Tomorrow, 18 July, Wednesday

    Time Temperature Precipitation Wind Pressure Humidity
    00:00 +20°C° 0.1 mm 3 mps 743 mmHg 96%
    01:00 +20°C° 0.7 mm 3 mps 743 mmHg 96%
    02:00 +20°C° 0.7 mm 3 mps 743 mmHg 96%
    03:00 +20°C° 0.7 mm 4 mps 743 mmHg 96%
    04:00 +20°C° 0.9 mm 4 mps 743 mmHg 96%
    05:00 +20°C° 0.9 mm 4 mps 743 mmHg 96%
    06:00 +20°C° 0.9 mm 4 mps 743 mmHg 96%
    07:00 +20°C° 0.4 mm 4 mps 743 mmHg 95%
    08:00 +20°C° 0.4 mm 4 mps 743 mmHg 94%
    09:00 +21°C° 0.4 mm 4 mps 743 mmHg 93%
    10:00 +22°C° 0.1 mm 5 mps 743 mmHg 89%
    11:00 +23°C° 0.1 mm 5 mps 743 mmHg 85%
    12:00 +25°C° 0.1 mm 5 mps 743 mmHg 81%
    13:00 +25°C° 0.4 mm 5 mps 743 mmHg 79%
    14:00 +26°C° 0.4 mm 5 mps 743 mmHg 77%
    15:00 +26°C° 0.4 mm 5 mps 743 mmHg 75%
    16:00 +26°C° 0.3 mm 4 mps 743 mmHg 77%
    17:00 +26°C° 0.3 mm 4 mps 743 mmHg 80%
    18:00 +25°C° 0.3 mm 4 mps 743 mmHg 83%
    19:00 +24°C° 0.1 mm 3 mps 743 mmHg 87%
    20:00 +22°C° 0.1 mm 3 mps 744 mmHg 91%
    21:00 +21°C° 0.1 mm 3 mps 744 mmHg 95%
    22:00 +21°C° 0.4 mm 3 mps 744 mmHg 96%
    23:00 +20°C° 0.4 mm 3 mps 744 mmHg 96%

    Day after tomorrow, 19 July, Thursday

    Time Temperature Precipitation Wind Pressure Humidity
    00:00 +20°C° 0.4 mm 2 mps 744 mmHg 97%
    01:00 +20°C° 0.2 mm 2 mps 744 mmHg 97%
    02:00 +19°C° 0.2 mm 2 mps 744 mmHg 97%
    03:00 +19°C° 0.2 mm 2 mps 744 mmHg 98%
    04:00 +19°C° 0 mm 2 mps 744 mmHg 96%
    05:00 +20°C° 0 mm 2 mps 744 mmHg 95%
    06:00 +21°C° 0 mm 3 mps 744 mmHg 94%
    07:00 +21°C° 0.3 mm 3 mps 745 mmHg 92%
    08:00 +22°C° 0.3 mm 3 mps 745 mmHg 89%
    09:00 +22°C° 0.3 mm 3 mps 745 mmHg 87%
    10:00 +24°C° 0.4 mm 3 mps 745 mmHg 85%
    11:00 +23°C° 0.4 mm 4 mps 745 mmHg 83%
    12:00 +23°C° 0.4 mm 4 mps 745 mmHg 81%
    13:00 +25°C° 0.1 mm 4 mps 746 mmHg 80%
    14:00 +25°C° 0.1 mm 4 mps 746 mmHg 78%
    15:00 +25°C° 0.1 mm 4 mps 746 mmHg 76%
    16:00 +23°C° 0 mm 4 mps 746 mmHg 79%
    17:00 +24°C° 0 mm 3 mps 746 mmHg 81%
    18:00 +22°C° 0 mm 3 mps 746 mmHg 83%
    19:00 +21°C° 0.1 mm 3 mps 746 mmHg 87%
    20:00 +20°C° 0.1 mm 3 mps 746 mmHg 91%
    21:00 +19°C° 0.1 mm 3 mps 746 mmHg 96%
    22:00 +19°C° 0.2 mm 3 mps 746 mmHg 96%
    23:00 +19°C° 0.2 mm 3 mps 746 mmHg 97%

    20 July, Friday

    Time Temperature Precipitation Wind Pressure Humidity
    00:00 +18°C° 0.2 mm 2 mps 746 mmHg 97%
    01:00 +18°C° 0.1 mm 3 mps 746 mmHg 97%
    02:00 +18°C° 0.1 mm 3 mps 746 mmHg 97%
    03:00 +18°C° 0.1 mm 3 mps 746 mmHg 98%
    04:00 +19°C° 0.6 mm 3 mps 746 mmHg 97%
    05:00 +19°C° 0.6 mm 3 mps 746 mmHg 96%
    06:00 +20°C° 0.6 mm 3 mps 747 mmHg 96%
    07:00 +21°C° 0.5 mm 3 mps 747 mmHg 93%
    08:00 +22°C° 0.5 mm 3 mps 747 mmHg 91%
    09:00 +24°C° 0.5 mm 3 mps 747 mmHg 88%
    10:00 +24°C° 1.2 mm 3 mps 747 mmHg 86%
    11:00 +25°C° 1.2 mm 3 mps 747 mmHg 84%
    12:00 +25°C° 1.2 mm 3 mps 747 mmHg 82%
    13:00 +25°C° 1.3 mm 3 mps 747 mmHg 83%
    14:00 +25°C° 1.3 mm 4 mps 747 mmHg 85%
    15:00 +25°C° 1.3 mm 4 mps 747 mmHg 87%
    16:00 +23°C° 0.8 mm 4 mps 748 mmHg 88%
    17:00 +22°C° 0.8 mm 3 mps 748 mmHg 90%
    18:00 +22°C° 0.8 mm 3 mps 748 mmHg 92%
    19:00 +21°C° 0 mm 3 mps 748 mmHg 93%
    20:00 +21°C° 0 mm 3 mps 747 mmHg 95%
    21:00 +20°C° 0 mm 3 mps 747 mmHg 96%
    22:00 +20°C° 0.1 mm 3 mps 748 mmHg 96%
    23:00 +20°C° 0.1 mm 3 mps 748 mmHg 96%

    21 July, Saturday

    Time Temperature Precipitation Wind Pressure Humidity
    00:00 +20°C° 0.1 mm 3 mps 748 mmHg 97%
    01:00 +19°C° 0.1 mm 3 mps 748 mmHg 97%
    02:00 +19°C° 0.1 mm 2 mps 748 mmHg 97%
    03:00 +19°C° 0.1 mm 2 mps 748 mmHg 97%
    04:00 +19°C° 0.1 mm 3 mps 748 mmHg 96%
    05:00 +20°C° 0.1 mm 3 mps 748 mmHg 96%
    06:00 +20°C° 0.1 mm 3 mps 748 mmHg 96%
    07:00 +21°C° 0.1 mm 3 mps 748 mmHg 94%
    08:00 +21°C° 0.1 mm 4 mps 748 mmHg 93%
    09:00 +22°C° 0.1 mm 4 mps 748 mmHg 91%
    10:00 +23°C° 0.9 mm 4 mps 748 mmHg 90%
    11:00 +23°C° 0.9 mm 4 mps 748 mmHg 89%
    12:00 +25°C° 0.9 mm 3 mps 749 mmHg 88%
    13:00 +25°C° 0.5 mm 4 mps 749 mmHg 87%
    14:00 +25°C° 0.5 mm 4 mps 748 mmHg 86%
    15:00 +25°C° 0.5 mm 4 mps 748 mmHg 85%
    16:00 +25°C° 0 mm 4 mps 748 mmHg 85%
    17:00 +25°C° 0 mm 4 mps 748 mmHg 84%
    18:00 +25°C° 0 mm 4 mps 748 mmHg 83%
    19:00 +23°C° 0 mm 4 mps 748 mmHg 86%
    20:00 +22°C° 0 mm 3 mps 748 mmHg 90%
    21:00 +21°C° 0 mm 3 mps 748 mmHg 93%
    22:00 +21°C° 0 mm 3 mps 748 mmHg 94%
    23:00 +21°C° 0 mm 3 mps 748 mmHg 95%

    22 July, Sunday

    Time Temperature Precipitation Wind Pressure Humidity
    00:00 +20°C° 0 mm 3 mps 748 mmHg 96%
    01:00 +20°C° 0 mm 3 mps 748 mmHg 96%
    02:00 +19°C° 0 mm 3 mps 748 mmHg 95%
    03:00 +19°C° 0 mm 4 mps 748 mmHg 95%
    04:00 +19°C° 0.1 mm 4 mps 748 mmHg 94%
    05:00 +20°C° 0.1 mm 4 mps 748 mmHg 92%
    06:00 +20°C° 0.1 mm 4 mps 748 mmHg 91%
    07:00 +21°C° 0 mm 4 mps 748 mmHg 85%
    08:00 +23°C° 0 mm 5 mps 748 mmHg 78%
    09:00 +25°C° 0 mm 5 mps 748 mmHg 72%
    10:00 +26°C° 0 mm 5 mps 748 mmHg 69%
    11:00 +27°C° 0 mm 5 mps 748 mmHg 65%
    12:00 +28°C° 0 mm 6 mps 748 mmHg 61%
    13:00 +28°C° 0 mm 5 mps 748 mmHg 62%
    14:00 +28°C° 0 mm 5 mps 748 mmHg 62%
    15:00 +28°C° 0 mm 5 mps 748 mmHg 63%
    16:00 +27°C° 0 mm 5 mps 748 mmHg 67%
    17:00 +27°C° 0 mm 5 mps 748 mmHg 71%
    18:00 +26°C° 0 mm 5 mps 748 mmHg 75%
    19:00 +25°C° 0 mm 5 mps 748 mmHg 78%
    20:00 +23°C° 0 mm 4 mps 748 mmHg 80%
    21:00 +21°C° 0 mm 4 mps 748 mmHg 83%
    22:00 +21°C° 0 mm 4 mps 748 mmHg 83%
    23:00 +20°C° 0 mm 4 mps 748 mmHg 82%
    Show more